Altus AFB, OK

7:45 AM CST on January 16, 2018 (GMT -0600)
Altus Air Force Base

Weather History for KLTS - June, 2014

Change the Weather History Date:

Saturday, June 28, 2014

  Actual Average Record
Temperature  
Mean Temperature 82 °F -  
Max Temperature 92 °F 90 °F 107 °F (1998)
Min Temperature 74 °F 69 °F 61 °F (2015)
Cooling Degree Days 18    
Growing Degree Days 32 (Base 50)    
Moisture  
Dew Point 73 °F    
Average Humidity 77    
Maximum Humidity 100    
Minimum Humidity 52    
Precipitation  
Precipitation 0.05 in - - ()
Sea Level Pressure  
Sea Level Pressure 29.78 in    
Wind  
Wind Speed 12 mph (SE)    
Max Wind Speed 24 mph    
Max Gust Speed 34 mph    
Visibility 10 miles    
Events Rain , Thunderstorm    
Averages and records for this station are not official NWS values.
T = Trace of Precipitation, MM = Missing Value Source: NWS Daily Summary

Daily Weather History Graph

Daily Weather History Graph

Search for Another Location

Airport or City:

Trip Planner

Search our weather history database for the weather conditions in past years. The results will help you decide how hot, cold, wet, or windy it might be!

Date:

Astronomy

Jun. 28, 2014 Rise Set
Actual Time 6:26 AM CDT 8:54 PM CDT
Civil Twilight 5:57 AM CDT 9:23 PM CDT
Nautical Twilight 5:20 AM CDT 9:59 PM CDT
Astronomical Twilight 4:40 AM CDT 10:39 PM CDT
Moon 7:46 AM CDT (6/28) 9:45 PM CDT (6/28)
Length of Visible Light 15h 26m
Length of Day
14h 27m
New Moon, 2% of the Moon is Illuminated
Jun 28
New Moon
Jul 5
First Quarter
Jul 12
Full
Jul 18
Last Quarter
Jul 26
New

Hourly Weather History & Observations

Time (CDT) Temp. Heat Index Dew Point Humidity Pressure Visibility Wind Dir Wind Speed Gust Speed Precip Events Conditions
12:28 AM 82.4 °F 86.3 °F 69.8 °F 66% 29.81 in 10.0 mi South 9.2 mph - N/A   Mostly Cloudy
12:47 AM 80.6 °F 84.6 °F 71.6 °F 74% 29.82 in 10.0 mi SW 5.8 mph - N/A Rain Light Rain
12:58 AM 80.8 °F 85.1 °F 72.1 °F 75% 29.76 in 10.0 mi SW 2.3 mph - 0.00 in   Light Drizzle
12:59 AM 80.6 °F 84.6 °F 71.6 °F 74% 29.81 in 10.0 mi SSE 2.3 mph - N/A   Overcast
1:10 AM 78.8 °F - 73.4 °F 83% 29.79 in 10.0 mi ESE 10.4 mph - N/A   Light Drizzle
1:18 AM 78.8 °F - 73.4 °F 83% 29.77 in 8.0 mi ESE 11.5 mph - N/A Rain , Thunderstorm Light Thunderstorms and Rain
1:23 AM 78.8 °F - 73.4 °F 83% 29.76 in 8.0 mi ESE 16.1 mph - N/A Rain , Thunderstorm Light Thunderstorms and Rain
1:28 AM 78.8 °F - 73.4 °F 83% 29.78 in 10.0 mi SE 5.8 mph - N/A Rain , Thunderstorm Light Thunderstorms and Rain
1:33 AM 78.8 °F - 73.4 °F 83% 29.77 in 10.0 mi SE 10.4 mph - N/A   Drizzle
1:41 AM 77.0 °F - 73.4 °F 89% 29.75 in 10.0 mi East 5.8 mph - N/A   Partly Cloudy
1:43 AM 77.0 °F - 73.4 °F 89% 29.76 in 10.0 mi ENE 5.8 mph - N/A   Light Drizzle
1:58 AM 77.9 °F - 72.5 °F 83% 29.72 in 10.0 mi East 4.6 mph - 0.01 in   Light Drizzle
2:04 AM 77.0 °F - 73.4 °F 89% 29.78 in 10.0 mi ESE 9.2 mph - N/A   Clear
2:36 AM 77.0 °F - 73.4 °F 89% 29.78 in 10.0 mi East 8.1 mph - N/A Thunderstorm Thunderstorm
2:43 AM 77.0 °F - 73.4 °F 89% 29.77 in 10.0 mi ESE 9.2 mph - N/A Rain , Thunderstorm Light Thunderstorms and Rain
2:51 AM 77.0 °F - 73.4 °F 89% 29.77 in 10.0 mi SE 5.8 mph - N/A Rain , Thunderstorm Light Rain
2:58 AM 75.9 °F - 73.2 °F 91% 29.72 in 10.0 mi ESE 10.4 mph - 0.03 in Rain Light Rain
3:05 AM 75.2 °F - 73.4 °F 94% 29.78 in 10.0 mi SE 8.1 mph - N/A Thunderstorm Partly Cloudy
3:23 AM 75.2 °F - 73.4 °F 94% 29.77 in 10.0 mi ESE 8.1 mph - N/A Rain Light Rain
3:36 AM 75.2 °F - 73.4 °F 94% 29.76 in 10.0 mi ESE 11.5 mph - N/A   Partly Cloudy
3:58 AM 74.3 °F - 74.3 °F 100% 29.72 in 10.0 mi East 6.9 mph - 0.00 in   Partly Cloudy
4:31 AM 75.2 °F - 73.4 °F 94% 29.77 in 10.0 mi SE 6.9 mph - N/A Thunderstorm Thunderstorm
4:46 AM 75.2 °F - 73.4 °F 94% 29.77 in 10.0 mi SE 10.4 mph - N/A   Mostly Cloudy
4:52 AM 75.2 °F - 75.2 °F 100% 29.78 in 10.0 mi SE 10.4 mph - N/A Rain Light Rain
4:58 AM 74.8 °F - 74.3 °F 98% 29.72 in 8.0 mi SE 13.8 mph - 0.01 in Rain Light Rain
5:06 AM 75.2 °F - 73.4 °F 94% 29.77 in 9.0 mi SSE 15.0 mph - N/A   Mostly Cloudy
5:58 AM 75.6 °F - 72.3 °F 90% 29.73 in 10.0 mi SSE 15.0 mph - 0.00 in   Mostly Cloudy
6:03 AM 75.2 °F - 71.6 °F 89% 29.79 in 10.0 mi SE 16.1 mph - N/A   Mostly Cloudy
6:48 AM 75.2 °F - 71.6 °F 89% 29.80 in 10.0 mi SE 13.8 mph - N/A   Overcast
6:58 AM 75.6 °F - 72.0 °F 89% 29.75 in 10.0 mi SE 15.0 mph - N/A   Overcast
7:53 AM 75.2 °F - 73.4 °F 94% 29.81 in 10.0 mi SE 17.3 mph - N/A   Mostly Cloudy
7:58 AM 75.4 °F - 72.7 °F 91% 29.76 in 10.0 mi SE 17.3 mph - N/A   Mostly Cloudy
8:48 AM 75.2 °F - 73.4 °F 94% 29.82 in 10.0 mi SE 16.1 mph 26.5 mph N/A   Mostly Cloudy
8:58 AM 76.1 °F - 73.0 °F 90% 29.77 in 10.0 mi SE 19.6 mph 27.6 mph N/A   Scattered Clouds
9:58 AM 78.4 °F - 72.9 °F 83% 29.76 in 10.0 mi SSE 24.2 mph 34.5 mph N/A   Mostly Cloudy
10:08 AM 78.8 °F - 73.4 °F 83% 29.82 in 10.0 mi SSE 24.2 mph 31.1 mph N/A   Mostly Cloudy
10:28 AM 80.6 °F 85.4 °F 73.4 °F 79% 29.81 in 10.0 mi SSE 21.9 mph 29.9 mph N/A   Mostly Cloudy
10:58 AM 80.6 °F 85.0 °F 72.9 °F 77% 29.76 in 10.0 mi SSE 20.7 mph 29.9 mph N/A   Mostly Cloudy
11:08 AM 82.4 °F 88.2 °F 73.4 °F 74% 29.80 in 10.0 mi SSE 24.2 mph 29.9 mph N/A   Mostly Cloudy
11:33 AM 82.4 °F 88.2 °F 73.4 °F 74% 29.81 in 10.0 mi SSE 23.0 mph 28.8 mph N/A   Mostly Cloudy
11:38 AM 82.4 °F 88.2 °F 73.4 °F 74% 29.81 in 10.0 mi South 19.6 mph 28.8 mph N/A   Mostly Cloudy
11:43 AM 82.4 °F 88.2 °F 73.4 °F 74% 29.81 in 10.0 mi SSE 19.6 mph 28.8 mph N/A   Overcast
11:58 AM 82.8 °F 87.9 °F 72.1 °F 70% 29.77 in 10.0 mi South 13.8 mph 31.1 mph N/A   Overcast
12:03 PM 82.4 °F 87.2 °F 71.6 °F 70% 29.83 in 10.0 mi SSE 18.4 mph 27.6 mph N/A   Overcast
12:58 PM 83.5 °F 89.1 °F 72.5 °F 69% 29.78 in 10.0 mi SSE 17.3 mph - N/A   Mostly Cloudy
1:13 PM 84.2 °F 90.9 °F 73.4 °F 70% 29.84 in 10.0 mi SSE 17.3 mph 23.0 mph N/A   Mostly Cloudy
1:18 PM 84.2 °F 90.9 °F 73.4 °F 70% 29.83 in 10.0 mi SSE 16.1 mph 23.0 mph N/A   Mostly Cloudy
1:58 PM 86.9 °F 94.5 °F 73.6 °F 64% 29.77 in 10.0 mi South 18.4 mph 25.3 mph N/A   Scattered Clouds
2:58 PM 88.9 °F 97.1 °F 73.6 °F 60% 29.75 in 10.0 mi South 17.3 mph 25.3 mph N/A   Scattered Clouds
3:13 PM 87.8 °F 95.6 °F 73.4 °F 62% 29.79 in 10.0 mi SSE 19.6 mph - N/A   Mostly Cloudy
3:28 PM 89.6 °F 98.2 °F 73.4 °F 59% 29.79 in 10.0 mi South 18.4 mph 23.0 mph N/A   Scattered Clouds
3:33 PM 89.6 °F 98.2 °F 73.4 °F 59% 29.79 in 10.0 mi South 19.6 mph 23.0 mph N/A   Mostly Cloudy
3:43 PM 89.6 °F 98.2 °F 73.4 °F 59% 29.79 in 10.0 mi SSE 18.4 mph 21.9 mph N/A   Scattered Clouds
3:48 PM 89.6 °F 98.2 °F 73.4 °F 59% 29.79 in 10.0 mi SSE 18.4 mph 23.0 mph N/A   Mostly Cloudy
3:58 PM 89.4 °F 97.3 °F 72.7 °F 58% 29.74 in 10.0 mi SSE 17.3 mph 24.2 mph N/A   Mostly Cloudy
4:58 PM 91.8 °F 99.7 °F 72.7 °F 53% 29.73 in 10.0 mi SSE 15.0 mph - N/A   Scattered Clouds
5:03 PM 91.4 °F 98.4 °F 71.6 °F 52% 29.78 in 10.0 mi SSE 12.7 mph 21.9 mph N/A   Mostly Cloudy
5:18 PM 91.4 °F 100.1 °F 73.4 °F 55% 29.78 in 10.0 mi SSE 11.5 mph 24.2 mph N/A   Scattered Clouds
5:38 PM 89.6 °F 96.2 °F 71.6 °F 55% 29.79 in 10.0 mi SSE 16.1 mph 25.3 mph N/A   Mostly Cloudy
5:58 PM 91.0 °F 98.2 °F 71.6 °F 53% 29.73 in 10.0 mi SSE 17.3 mph 23.0 mph N/A   Scattered Clouds
6:58 PM 91.4 °F 98.9 °F 72.0 °F 53% 29.72 in 10.0 mi SSE 16.1 mph 23.0 mph N/A   Clear
7:58 PM 89.8 °F 96.5 °F 71.6 °F 55% 29.73 in 10.0 mi SE 15.0 mph - N/A   Clear
8:58 PM 86.0 °F 91.8 °F 71.6 °F 62% 29.74 in 10.0 mi SE 15.0 mph - N/A   Clear
9:58 PM 82.9 °F 87.7 °F 71.6 °F 68% 29.78 in 10.0 mi ESE 17.3 mph - N/A   Clear
10:58 PM 81.7 °F 85.8 °F 71.2 °F 70% 29.80 in 10.0 mi SE 15.0 mph - N/A   Clear
11:58 PM 80.1 °F 83.6 °F 71.2 °F 74% 29.81 in 10.0 mi SE 12.7 mph - N/A   Clear